User: anonymous   Login
Location: Stigler
(35.2540°N, 95.1230°W)
Time: 22:50:05
(UTC-05:00)
Language:

Cosmos 1805 - Orbit

View from above orbital plane
View from above orbital plane
View from above satellite
View from above satellite

Ground track
Ground track

The orbit data is extracted from the following two-line orbital elements,

1 17191U 86097A   15245.69088831 +.00000791 +00000-0 +46631-4 0  9990
2 17191 082.4738 312.4864 0005933 148.4736 211.6850 15.10201570564666
Epoch (UTC): 02 September 2015 16:34:52
Eccentricity: 0.0005933
inclination: 82.4738°
perigee height: 531 km
apogee height: 539 km
right ascension of ascending node: 312.4864°
argument of perigee: 148.4736°
revolutions per day: 15.10201570
mean anomaly at epoch: 211.6850°
orbit number at epoch: 56466

The dashed part of the orbit path shows where the satellite is in the earth's shadow,  

DLR